Weather History for KVTA - November, 2013

Change the Weather History Date:

Thursday, November 7, 2013

  Actual Average Record
Temperature  
Mean Temperature 42 °F -  
Max Temperature 51 °F 51 °F 80 °F (1938)
Min Temperature 33 °F 34 °F 17 °F (1953)
Degree Days  
Heating Degree Days 23    
Moisture  
Dew Point 36 °F    
Average Humidity 75    
Maximum Humidity 93    
Minimum Humidity 46    
Precipitation  
Precipitation 0.17 in - - ()
Sea Level Pressure  
Sea Level Pressure 30.09 in    
Wind  
Wind Speed 9 mph (WNW)    
Max Wind Speed 17 mph    
Max Gust Speed 26 mph    
Visibility 10 miles    
Events Rain    
Averages and records for this station are not official NWS values.
T = Trace of Precipitation, MM = Missing Value Source: NWS Daily Summary

Daily Weather History Graph

Daily Weather History Graph

Search for Another Location

Airport or City:

Trip Planner

Search our weather history database for the weather conditions in past years. The results will help you decide how hot, cold, wet, or windy it might be!

Date:

Astronomy

Nov. 07, 2013 Rise Set
Actual Time 7:06 AM EST 5:20 PM EST
Civil Twilight 6:37 AM EST 5:48 PM EST
Nautical Twilight 6:05 AM EST 6:21 PM EST
Astronomical Twilight 5:33 AM EST 6:53 PM EST
Moon 11:13 AM EST (11/7) 9:30 PM EST (11/7)
Length of Visible Light 11h 11m
Length of Day
10h 14m
Waxing Crescent, 22% of the Moon is Illuminated
Nov 7
Waxing Crescent
Nov 10
First Quarter
Nov 17
Full
Nov 25
Last Quarter
Dec 2
New

Hourly Weather History & Observations

Time (EST) Temp. Windchill Dew Point Humidity Pressure Visibility Wind Dir Wind Speed Gust Speed Precip Events Conditions
12:19 AM 51.8 °F - 48.2 °F 88% 29.97 in 6.0 mi NW 12.7 mph 21.9 mph 0.05 in Rain Rain
12:54 AM 51.1 °F - 48.0 °F 89% 29.96 in 10.0 mi NW 10.4 mph - 0.08 in Rain Light Rain
1:06 AM 48.2 °F - 46.4 °F 93% 29.98 in 10.0 mi NW 16.1 mph 26.5 mph 0.00 in Rain Light Rain
1:20 AM 48.2 °F - 42.8 °F 82% 29.99 in 10.0 mi NW 12.7 mph - 0.01 in Rain Light Rain
1:54 AM 46.9 °F - 43.0 °F 86% 29.97 in 10.0 mi NW 5.8 mph - 0.03 in Rain Light Rain
2:13 AM 46.4 °F 42.4 °F 42.8 °F 87% 30.01 in 10.0 mi WNW 8.1 mph - 0.01 in Rain Light Rain
2:44 AM 46.4 °F 42.4 °F 42.8 °F 87% 30.01 in 10.0 mi NW 8.1 mph - 0.02 in Rain Light Rain
2:51 AM 46.4 °F 41.9 °F 41.0 °F 81% 30.02 in 10.0 mi NNW 9.2 mph 19.6 mph 0.03 in Rain Light Rain
2:54 AM 45.0 °F 40.1 °F 41.0 °F 86% 30.01 in 10.0 mi NNW 9.2 mph 19.6 mph 0.03 in Rain Light Rain
3:33 AM 44.6 °F 40.2 °F 41.0 °F 87% 30.03 in 10.0 mi WNW 8.1 mph - 0.03 in Rain Light Rain
3:51 AM 44.6 °F 41.4 °F 41.0 °F 87% 30.02 in 10.0 mi NW 5.8 mph - 0.03 in   Overcast
3:54 AM 45.0 °F 41.8 °F 41.0 °F 86% 30.02 in 10.0 mi WNW 5.8 mph - 0.03 in   Overcast
4:27 AM 44.6 °F 40.2 °F 39.2 °F 81% 30.04 in 10.0 mi NW 8.1 mph - N/A   Overcast
4:54 AM 44.1 °F 39.5 °F 39.9 °F 85% 30.05 in 10.0 mi NW 8.1 mph - N/A   Overcast
5:36 AM 42.8 °F 37.0 °F 37.4 °F 81% 30.05 in 10.0 mi NNW 10.4 mph - N/A   Scattered Clouds
5:54 AM 43.0 °F 38.2 °F 37.9 °F 82% 30.06 in 10.0 mi NW 8.1 mph - N/A   Scattered Clouds
6:54 AM 42.1 °F 38.4 °F 37.0 °F 82% 30.09 in 10.0 mi NNW 5.8 mph - N/A   Mostly Cloudy
7:01 AM 42.8 °F 38.6 °F 37.4 °F 81% 30.09 in 10.0 mi NNW 6.9 mph - N/A   Overcast
7:54 AM 42.1 °F 37.7 °F 37.0 °F 82% 30.12 in 10.0 mi NW 6.9 mph - 0.00 in   Overcast
8:54 AM 43.0 °F 38.8 °F 37.9 °F 82% 30.14 in 10.0 mi WNW 6.9 mph - N/A   Overcast
9:54 AM 44.1 °F 39.0 °F 33.1 °F 65% 30.16 in 10.0 mi WNW 9.2 mph - N/A   Overcast
10:54 AM 44.1 °F 37.7 °F 33.1 °F 65% 30.17 in 10.0 mi WNW 12.7 mph - N/A   Mostly Cloudy
11:54 AM 45.0 °F 39.7 °F 32.0 °F 60% 30.18 in 10.0 mi WNW 10.4 mph 19.6 mph N/A   Mostly Cloudy
12:54 PM 46.0 °F 40.6 °F 26.1 °F 46% 30.16 in 10.0 mi WNW 11.5 mph 21.9 mph N/A   Clear
1:54 PM 45.0 °F 38.2 °F 26.1 °F 48% 30.17 in 10.0 mi WNW 15.0 mph 25.3 mph N/A   Mostly Cloudy
2:54 PM 45.0 °F 37.6 °F 25.0 °F 46% 30.17 in 10.0 mi WNW 17.3 mph 24.2 mph N/A   Overcast
3:54 PM 44.1 °F 39.5 °F 27.0 °F 51% 30.17 in 10.0 mi WNW 8.1 mph - N/A   Mostly Cloudy
4:54 PM 43.0 °F 40.3 °F 28.0 °F 56% 30.18 in 10.0 mi WNW 4.6 mph - N/A   Overcast
5:54 PM 41.0 °F 39.0 °F 30.0 °F 65% 30.18 in 10.0 mi West 3.5 mph - N/A   Mostly Cloudy
6:54 PM 37.0 °F - 28.9 °F 73% 30.19 in 10.0 mi Calm Calm - N/A   Clear
7:54 PM 33.1 °F - 28.9 °F 85% 30.19 in 9.0 mi Calm Calm - N/A   Clear
8:54 PM 33.1 °F - 30.0 °F 89% 30.19 in 10.0 mi Calm Calm - N/A   Overcast
9:54 PM 39.0 °F 34.8 °F 28.9 °F 67% 30.18 in 10.0 mi WSW 5.8 mph - N/A   Overcast
10:54 PM 39.9 °F 33.9 °F 28.0 °F 63% 30.17 in 10.0 mi SW 9.2 mph - 0.00 in Rain Light Rain
11:54 PM 39.9 °F 35.1 °F 28.9 °F 65% 30.17 in 10.0 mi WSW 6.9 mph - 0.00 in   Overcast